Location: Truman State University Observatory
(40.1787°N, 92.6006°W)
Time: 20:06:04
(UTC-06:00)

Tiangong 1 - Visible Passes

Search period start: 23 February 2018 00:00
Search period end: 05 March 2018 00:00
Orbit: 246 x 267 km, 42.8° (Epoch: 23 February)

Date Brightness Start Highest point End Pass type
(mag) Time Alt. Az. Time Alt. Az. Time Alt. Az.
28 Feb 3.3 19:36:11 10° SSW 19:36:26 12° SSW 19:36:26 12° SSW visible
01 Mar 2.1 19:27:53 10° SW 19:29:09 25° SSW 19:29:09 25° SSW visible
02 Mar 0.4 19:19:27 10° WSW 19:21:32 59° S 19:21:32 59° S visible
03 Mar 0.1 19:10:52 10° WSW 19:13:07 88° NNW 19:13:34 52° ENE visible
04 Mar 0.4 19:02:04 10° W 19:04:19 64° NNW 19:05:18 28° ENE visible
